Tracking 22130 objects as of 21-Jan-2021
HD Live streaming from Space Station
objects crossing your sky now

STARLINK-1854

Track STARLINK-1854 now!
10-day predictions
STARLINK-1854 is classified as:


NORAD ID: 47141
Int'l Code: 2020-088V
Perigee: 385.9 km
Apogee: 388.1 km
Inclination: 53.1 °
Period: 92.1 minutes
Semi major axis: 6757 km
RCS: Unknown
Launch date: November 25, 2020
Source: United States (US)
Launch site: AIR FORCE EASTERN TEST RANGE (AFETR)
aabbcc
Your satellite tracking list
Your tracking list is empty




NASA's NSSDC Master Catalog

Two Line Element Set (TLE):
1 47141U 20088V   21021.58335648  .00079106  00000-0  86298-3 0  9992
2 47141  53.0555  70.8646 0001652  37.8252 212.0669 15.62705273  1773
Source of the keplerian elements: AFSPC